SWA5005 KSTL-KDEN

Flight info

Callsign SWA5005
Flight time 2h 4m
Altitude 38000
Route BRAKK5 HLV OATHE CLASH5
Aircraft B737/M-SDE2E3GIJ4RWZ/LB1D1

Departure

Time 2026-05-06 14:53
Airport St. Louis Lambert International Airport (KSTL)

Arrival

Time 2026-05-06 16:57
Airport Denver International Airport (KDEN)
Time Latitude Longitude Altitude Speed Heading
2026-05-06 14:22 38.73815 -90.35886 571 ft 0 kts 233°
2026-05-06 14:44 38.73828 -90.35867 575 ft 4 kts 219°
2026-05-06 14:45 38.73873 -90.35835 571 ft 2 kts 218°
2026-05-06 14:45 38.73874 -90.35834 577 ft 1 kts 218°
2026-05-06 14:48 38.73871 -90.35836 571 ft 1 kts 197°
2026-05-06 14:48 38.73866 -90.35823 577 ft 2 kts 107°
2026-05-06 14:49 38.73865 -90.35806 571 ft 2 kts 79°
2026-05-06 14:49 38.73871 -90.35783 571 ft 4 kts 64°
2026-05-06 14:49 38.73895 -90.35753 572 ft 6 kts 32°
2026-05-06 14:49 38.73941 -90.35719 572 ft 8 kts 30°
2026-05-06 14:50 38.73988 -90.35684 576 ft 8 kts 31°
2026-05-06 14:50 38.74032 -90.35647 576 ft 7 kts 34°
2026-05-06 14:50 38.74029 -90.35587 582 ft 9 kts 123°
2026-05-06 14:50 38.73981 -90.35487 580 ft 17 kts 121°
2026-05-06 14:51 38.73916 -90.35352 580 ft 18 kts 121°
2026-05-06 14:51 38.73853 -90.35219 586 ft 17 kts 123°
2026-05-06 14:51 38.73788 -90.35095 589 ft 16 kts 121°
2026-05-06 14:51 38.73729 -90.34974 593 ft 16 kts 122°
2026-05-06 14:52 38.73666 -90.34860 596 ft 15 kts 126°
2026-05-06 14:52 38.73677 -90.34745 596 ft 15 kts 40°
2026-05-06 14:52 38.73761 -90.34677 596 ft 14 kts 24°
2026-05-06 14:52 38.73830 -90.34756 596 ft 21 kts 302°
2026-05-06 14:53 38.74046 -90.35196 583 ft 98 kts 301°
2026-05-06 14:53 38.74532 -90.36183 595 ft 159 kts 301°
2026-05-06 14:53 38.75163 -90.37434 1257 ft 168 kts 305°
2026-05-06 14:53 38.75829 -90.38611 2386 ft 157 kts 308°
2026-05-06 14:54 38.76434 -90.39784 3201 ft 161 kts 302°
2026-05-06 14:54 38.77047 -90.41118 3639 ft 190 kts 302°
2026-05-06 14:54 38.77782 -90.42673 3935 ft 219 kts 302°
2026-05-06 14:54 38.78609 -90.44401 4454 ft 233 kts 302°
2026-05-06 14:55 38.79293 -90.46312 5221 ft 238 kts 291°
2026-05-06 14:55 38.79832 -90.48376 5883 ft 253 kts 289°
2026-05-06 14:55 38.80371 -90.50577 6677 ft 262 kts 289°
2026-05-06 14:55 38.80913 -90.52798 7699 ft 259 kts 287°
2026-05-06 14:56 38.81452 -90.54986 8735 ft 258 kts 285°
2026-05-06 14:56 38.81990 -90.57168 9828 ft 255 kts 283°
2026-05-06 14:56 38.82534 -90.59346 10630 ft 262 kts 283°
2026-05-06 14:56 38.83112 -90.61671 10867 ft 288 kts 283°
2026-05-06 14:57 38.83528 -90.63338 11014 ft 304 kts 284°
2026-05-06 14:57 38.84199 -90.66020 11195 ft 328 kts 284°
2026-05-06 14:57 38.84922 -90.68899 11409 ft 348 kts 284°
2026-05-06 14:57 38.85676 -90.71888 11910 ft 356 kts 284°
2026-05-06 14:58 38.86445 -90.74920 12645 ft 357 kts 284°
2026-05-06 14:58 38.87214 -90.77943 13470 ft 357 kts 284°
2026-05-06 14:58 38.87981 -90.80980 14141 ft 359 kts 284°
2026-05-06 14:58 38.88749 -90.84031 14831 ft 360 kts 284°
2026-05-06 14:59 38.89521 -90.87097 15542 ft 361 kts 284°
2026-05-06 14:59 38.90293 -90.90163 16209 ft 363 kts 283°
2026-05-06 14:59 38.91069 -90.93250 16896 ft 364 kts 283°
2026-05-06 14:59 38.91845 -90.96349 17546 ft 365 kts 283°
2026-05-06 15:00 38.92623 -90.99461 18172 ft 367 kts 283°
2026-05-06 15:00 38.93405 -91.02590 18731 ft 369 kts 282°
2026-05-06 15:00 38.94191 -91.05742 19249 ft 371 kts 282°
2026-05-06 15:00 38.94978 -91.08898 19762 ft 373 kts 282°
2026-05-06 15:01 38.95770 -91.12079 20267 ft 375 kts 282°
2026-05-06 15:01 38.96565 -91.15277 20776 ft 377 kts 282°
2026-05-06 15:01 38.97259 -91.18514 21255 ft 375 kts 277°
2026-05-06 15:01 38.97770 -91.21804 21727 ft 376 kts 276°
2026-05-06 15:02 38.98234 -91.25121 22153 ft 378 kts 275°
2026-05-06 15:02 38.98716 -91.28455 22605 ft 380 kts 276°
2026-05-06 15:02 38.99221 -91.31800 23032 ft 382 kts 276°
2026-05-06 15:02 38.99740 -91.35159 23446 ft 384 kts 276°
2026-05-06 15:03 39.00264 -91.38550 23816 ft 386 kts 276°
2026-05-06 15:03 39.00784 -91.41935 24202 ft 387 kts 276°
2026-05-06 15:03 39.01304 -91.45329 24587 ft 387 kts 276°
2026-05-06 15:03 39.01822 -91.48721 24966 ft 387 kts 276°
2026-05-06 15:04 39.02339 -91.52116 25322 ft 387 kts 275°
2026-05-06 15:04 39.02848 -91.55469 25661 ft 387 kts 275°
2026-05-06 15:04 39.03363 -91.58869 25971 ft 388 kts 275°
2026-05-06 15:04 39.03878 -91.62275 26246 ft 388 kts 275°
2026-05-06 15:05 39.04392 -91.65682 26534 ft 387 kts 275°
2026-05-06 15:05 39.04906 -91.69081 26911 ft 385 kts 275°
2026-05-06 15:05 39.05412 -91.72435 27330 ft 381 kts 275°
2026-05-06 15:05 39.05912 -91.75760 27787 ft 377 kts 275°
2026-05-06 15:06 39.06405 -91.79050 28222 ft 373 kts 275°
2026-05-06 15:06 39.06894 -91.82325 28655 ft 371 kts 275°
2026-05-06 15:06 39.07377 -91.85560 29121 ft 367 kts 275°
2026-05-06 15:06 39.07855 -91.88769 29642 ft 363 kts 274°
2026-05-06 15:07 39.08327 -91.91947 30153 ft 359 kts 274°
2026-05-06 15:07 39.08794 -91.95094 30536 ft 357 kts 274°
2026-05-06 15:07 39.09256 -91.98214 30888 ft 355 kts 274°
2026-05-06 15:07 39.09714 -92.01332 31244 ft 353 kts 274°
2026-05-06 15:08 39.10172 -92.04429 31616 ft 351 kts 274°
2026-05-06 15:08 39.10627 -92.07501 32028 ft 348 kts 274°
2026-05-06 15:08 39.11076 -92.10547 32412 ft 346 kts 273°
2026-05-06 15:08 39.11438 -92.13592 32769 ft 339 kts 268°
2026-05-06 15:09 39.11515 -92.16606 33112 ft 336 kts 266°
2026-05-06 15:09 39.11549 -92.19609 33463 ft 334 kts 266°
2026-05-06 15:09 39.11576 -92.22585 33805 ft 332 kts 266°
2026-05-06 15:09 39.11601 -92.25549 34150 ft 330 kts 266°
2026-05-06 15:10 39.11629 -92.28463 34405 ft 329 kts 266°
2026-05-06 15:10 39.11659 -92.31411 34599 ft 329 kts 266°
2026-05-06 15:10 39.11690 -92.34367 34778 ft 330 kts 266°
2026-05-06 15:10 39.11723 -92.37316 35014 ft 329 kts 266°
2026-05-06 15:11 39.11755 -92.40270 35244 ft 329 kts 266°
2026-05-06 15:11 39.11787 -92.43214 35447 ft 329 kts 266°
2026-05-06 15:11 39.11820 -92.46160 35641 ft 329 kts 266°
2026-05-06 15:11 39.11852 -92.49102 35844 ft 329 kts 266°
2026-05-06 15:12 39.11883 -92.52042 36043 ft 328 kts 266°
2026-05-06 15:12 39.11914 -92.54980 36233 ft 328 kts 266°
2026-05-06 15:12 39.11945 -92.57918 36415 ft 328 kts 266°
2026-05-06 15:12 39.11975 -92.60855 36570 ft 328 kts 266°
2026-05-06 15:13 39.12004 -92.63794 36757 ft 328 kts 266°
2026-05-06 15:13 39.12031 -92.66729 36934 ft 328 kts 266°
2026-05-06 15:13 39.12058 -92.69662 37123 ft 327 kts 266°
2026-05-06 15:13 39.12085 -92.72593 37300 ft 327 kts 266°
2026-05-06 15:14 39.12111 -92.75526 37472 ft 327 kts 266°
2026-05-06 15:14 39.12137 -92.78450 37640 ft 327 kts 266°
2026-05-06 15:14 39.12161 -92.81380 37796 ft 327 kts 266°
2026-05-06 15:14 39.12184 -92.84310 37950 ft 327 kts 266°
2026-05-06 15:15 39.12207 -92.87241 38085 ft 327 kts 266°
2026-05-06 15:15 39.12250 -92.93117 38130 ft 328 kts 266°
2026-05-06 15:16 39.12291 -92.98947 38139 ft 327 kts 266°
2026-05-06 15:16 39.12329 -93.04802 38150 ft 326 kts 266°
2026-05-06 15:17 39.12364 -93.10641 38152 ft 326 kts 266°
2026-05-06 15:17 39.12396 -93.16489 38147 ft 326 kts 266°
2026-05-06 15:18 39.12424 -93.22325 38152 ft 326 kts 266°
2026-05-06 15:18 39.12450 -93.28172 38148 ft 326 kts 266°
2026-05-06 15:19 39.12474 -93.34016 38144 ft 326 kts 266°
2026-05-06 15:19 39.12494 -93.39863 38142 ft 326 kts 266°
2026-05-06 15:20 39.12512 -93.45705 38138 ft 326 kts 266°
2026-05-06 15:20 39.12525 -93.51562 38139 ft 327 kts 266°
2026-05-06 15:21 39.12536 -93.57413 38143 ft 327 kts 266°
2026-05-06 15:21 39.12544 -93.63244 38137 ft 328 kts 266°
2026-05-06 15:22 39.12550 -93.69123 38132 ft 328 kts 266°
2026-05-06 15:22 39.12552 -93.75011 38131 ft 329 kts 266°
2026-05-06 15:23 39.12551 -93.80896 38127 ft 329 kts 266°
2026-05-06 15:23 39.12548 -93.86782 38135 ft 329 kts 265°
2026-05-06 15:24 39.12541 -93.92682 38135 ft 329 kts 265°
2026-05-06 15:24 39.12532 -93.98590 38133 ft 330 kts 265°
2026-05-06 15:25 39.12521 -94.04510 38144 ft 331 kts 265°
2026-05-06 15:25 39.12505 -94.10435 38139 ft 331 kts 265°
2026-05-06 15:26 39.12487 -94.16363 38138 ft 331 kts 265°
2026-05-06 15:26 39.12465 -94.22299 38142 ft 332 kts 265°
2026-05-06 15:27 39.12441 -94.28240 38145 ft 332 kts 265°
2026-05-06 15:27 39.12414 -94.34184 38150 ft 332 kts 265°
2026-05-06 15:28 39.12384 -94.40086 38149 ft 332 kts 265°
2026-05-06 15:28 39.12350 -94.46047 38153 ft 333 kts 265°
2026-05-06 15:29 39.12312 -94.52017 38160 ft 333 kts 265°
2026-05-06 15:29 39.12272 -94.57992 38157 ft 333 kts 265°
2026-05-06 15:30 39.12230 -94.63962 38156 ft 334 kts 265°
2026-05-06 15:30 39.12184 -94.69949 38165 ft 334 kts 265°
2026-05-06 15:31 39.12136 -94.75948 38149 ft 335 kts 265°
2026-05-06 15:31 39.12084 -94.81960 38154 ft 335 kts 265°
2026-05-06 15:32 39.11998 -94.90974 38146 ft 336 kts 265°
2026-05-06 15:32 39.11937 -94.97006 38150 ft 337 kts 265°
2026-05-06 15:33 39.11874 -95.03031 38142 ft 337 kts 265°
2026-05-06 15:33 39.11809 -95.09076 38142 ft 337 kts 265°
2026-05-06 15:34 39.11739 -95.15124 38145 ft 338 kts 265°
2026-05-06 15:34 39.11667 -95.21173 38147 ft 338 kts 265°
2026-05-06 15:35 39.11590 -95.27235 38155 ft 339 kts 265°
2026-05-06 15:35 39.11512 -95.33270 38163 ft 339 kts 265°
2026-05-06 15:36 39.11429 -95.39337 38169 ft 339 kts 265°
2026-05-06 15:36 39.11344 -95.45426 38168 ft 340 kts 265°
2026-05-06 15:37 39.11254 -95.51518 38176 ft 341 kts 265°
2026-05-06 15:37 39.11161 -95.57626 38176 ft 342 kts 265°
2026-05-06 15:38 39.11065 -95.63747 38177 ft 342 kts 265°
2026-05-06 15:38 39.10965 -95.69881 38175 ft 342 kts 265°
2026-05-06 15:39 39.10863 -95.76016 38172 ft 343 kts 265°
2026-05-06 15:39 39.10758 -95.82165 38172 ft 343 kts 265°
2026-05-06 15:40 39.10649 -95.88303 38168 ft 343 kts 264°
2026-05-06 15:40 39.10555 -95.93414 38170 ft 343 kts 264°
2026-05-06 15:41 39.10440 -95.99563 38172 ft 344 kts 264°
2026-05-06 15:41 39.10321 -96.05728 38172 ft 345 kts 264°
2026-05-06 15:42 39.10198 -96.11907 38173 ft 345 kts 264°
2026-05-06 15:42 39.10072 -96.18099 38175 ft 346 kts 264°
2026-05-06 15:43 39.09942 -96.24295 38179 ft 347 kts 264°
2026-05-06 15:43 39.09809 -96.30473 38180 ft 347 kts 264°
2026-05-06 15:44 39.09673 -96.36698 38184 ft 348 kts 264°
2026-05-06 15:44 39.09534 -96.42930 38189 ft 348 kts 264°
2026-05-06 15:45 39.09390 -96.49172 38195 ft 348 kts 264°
2026-05-06 15:45 39.09244 -96.55413 38193 ft 349 kts 264°
2026-05-06 15:46 39.09094 -96.61673 38192 ft 349 kts 264°
2026-05-06 15:46 39.08940 -96.67934 38193 ft 350 kts 264°
2026-05-06 15:47 39.08783 -96.74205 38181 ft 351 kts 264°
2026-05-06 15:47 39.08621 -96.80493 38189 ft 351 kts 264°
2026-05-06 15:48 39.08456 -96.86783 38181 ft 352 kts 264°
2026-05-06 15:48 39.08286 -96.93082 38181 ft 352 kts 264°
2026-05-06 15:49 39.08116 -96.99378 38180 ft 353 kts 264°
2026-05-06 15:49 39.07940 -97.05698 38183 ft 353 kts 264°
2026-05-06 15:50 39.07761 -97.11984 38181 ft 354 kts 264°
2026-05-06 15:50 39.07578 -97.18317 38179 ft 355 kts 264°
2026-05-06 15:51 39.07391 -97.24665 38183 ft 355 kts 264°
2026-05-06 15:51 39.07201 -97.31021 38184 ft 356 kts 264°
2026-05-06 15:52 39.07007 -97.37388 38186 ft 356 kts 264°
2026-05-06 15:52 39.06810 -97.43760 38186 ft 357 kts 264°
2026-05-06 15:53 39.06607 -97.50150 38189 ft 357 kts 264°
2026-05-06 15:53 39.06402 -97.56536 38188 ft 358 kts 264°
2026-05-06 15:54 39.06191 -97.62947 38191 ft 359 kts 264°
2026-05-06 15:54 39.05977 -97.69364 38192 ft 359 kts 264°
2026-05-06 15:55 39.05761 -97.75787 38190 ft 359 kts 264°
2026-05-06 15:55 39.05540 -97.82212 38193 ft 360 kts 264°
2026-05-06 15:56 39.05315 -97.88647 38188 ft 360 kts 264°
2026-05-06 15:56 39.05087 -97.95096 38191 ft 361 kts 264°
2026-05-06 15:57 39.04854 -98.01565 38191 ft 362 kts 264°
2026-05-06 15:57 39.04617 -98.08027 38194 ft 362 kts 264°
2026-05-06 15:58 39.04376 -98.14508 38198 ft 363 kts 264°
2026-05-06 15:58 39.04132 -98.20997 38193 ft 364 kts 264°
2026-05-06 15:59 39.03883 -98.27495 38209 ft 363 kts 264°
2026-05-06 15:59 39.03631 -98.33990 38198 ft 364 kts 264°
2026-05-06 16:00 39.03375 -98.40496 38199 ft 364 kts 263°
2026-05-06 16:00 39.03114 -98.47010 38195 ft 365 kts 263°
2026-05-06 16:01 39.02849 -98.53545 38198 ft 366 kts 263°
2026-05-06 16:01 39.02582 -98.60079 38196 ft 366 kts 263°
2026-05-06 16:02 39.02310 -98.66627 38201 ft 366 kts 263°
2026-05-06 16:02 39.02034 -98.73135 38200 ft 368 kts 263°
2026-05-06 16:03 39.01753 -98.79724 38194 ft 369 kts 263°
2026-05-06 16:03 39.01466 -98.86333 38199 ft 370 kts 263°
2026-05-06 16:04 39.01176 -98.92961 38192 ft 371 kts 263°
2026-05-06 16:04 39.00882 -98.99591 38194 ft 371 kts 263°
2026-05-06 16:05 39.00583 -99.06226 38199 ft 371 kts 263°
2026-05-06 16:05 39.00282 -99.12848 38212 ft 371 kts 263°
2026-05-06 16:06 38.99977 -99.19466 38216 ft 371 kts 263°
2026-05-06 16:06 38.99670 -99.26043 38221 ft 371 kts 263°
2026-05-06 16:07 38.99356 -99.32661 38211 ft 371 kts 263°
2026-05-06 16:07 38.99040 -99.39282 38220 ft 371 kts 263°
2026-05-06 16:08 38.98719 -99.45914 38220 ft 371 kts 263°
2026-05-06 16:08 38.98394 -99.52543 38221 ft 372 kts 263°
2026-05-06 16:09 38.98065 -99.59178 38219 ft 372 kts 263°
2026-05-06 16:09 38.97732 -99.65811 38216 ft 372 kts 263°
2026-05-06 16:10 38.97395 -99.72463 38221 ft 373 kts 263°
2026-05-06 16:10 38.97054 -99.79114 38219 ft 373 kts 263°
2026-05-06 16:11 38.96711 -99.85725 38217 ft 373 kts 263°
2026-05-06 16:11 38.96362 -99.92393 38222 ft 374 kts 263°
2026-05-06 16:12 38.96009 -99.99066 38214 ft 374 kts 263°
2026-05-06 16:12 38.95651 -100.05742 38217 ft 375 kts 263°
2026-05-06 16:13 38.95289 -100.12426 38213 ft 375 kts 263°
2026-05-06 16:13 38.94922 -100.19108 38215 ft 375 kts 263°
2026-05-06 16:14 38.94552 -100.25802 38208 ft 376 kts 263°
2026-05-06 16:14 38.94178 -100.32497 38210 ft 376 kts 263°
2026-05-06 16:15 38.93799 -100.39206 38209 ft 376 kts 263°
2026-05-06 16:15 38.93418 -100.45904 38204 ft 376 kts 263°
2026-05-06 16:16 38.93033 -100.52601 38205 ft 376 kts 263°
2026-05-06 16:16 38.92645 -100.59265 38203 ft 376 kts 263°
2026-05-06 16:17 38.92251 -100.65968 38195 ft 376 kts 263°
2026-05-06 16:17 38.91853 -100.72662 38197 ft 376 kts 263°
2026-05-06 16:18 38.91451 -100.79372 38194 ft 377 kts 263°
2026-05-06 16:18 38.91047 -100.86073 38196 ft 377 kts 263°
2026-05-06 16:19 38.90636 -100.92778 38201 ft 376 kts 263°
2026-05-06 16:19 38.90222 -100.99489 38197 ft 377 kts 263°
2026-05-06 16:20 38.89805 -101.06195 38195 ft 377 kts 263°
2026-05-06 16:20 38.89383 -101.12914 38200 ft 377 kts 263°
2026-05-06 16:21 38.88959 -101.19619 38194 ft 377 kts 263°
2026-05-06 16:21 38.88530 -101.26335 38194 ft 377 kts 263°
2026-05-06 16:22 38.88096 -101.33051 38189 ft 377 kts 263°
2026-05-06 16:22 38.87733 -101.38633 38194 ft 378 kts 263°
2026-05-06 16:23 38.87292 -101.45352 38189 ft 378 kts 263°
2026-05-06 16:23 38.86848 -101.52069 38192 ft 378 kts 263°
2026-05-06 16:24 38.86400 -101.58779 38187 ft 378 kts 263°
2026-05-06 16:24 38.85947 -101.65498 38189 ft 378 kts 263°
2026-05-06 16:25 38.85492 -101.72214 38184 ft 378 kts 263°
2026-05-06 16:25 38.85033 -101.78928 38180 ft 378 kts 263°
2026-05-06 16:26 38.84853 -101.85671 38180 ft 379 kts 266°
2026-05-06 16:26 38.84827 -101.92446 38180 ft 379 kts 266°
2026-05-06 16:27 38.84775 -101.99211 38176 ft 379 kts 266°
2026-05-06 16:27 38.84698 -102.05966 38181 ft 379 kts 266°
2026-05-06 16:28 38.84611 -102.12734 38163 ft 379 kts 266°
2026-05-06 16:28 38.84523 -102.19487 38167 ft 379 kts 266°
2026-05-06 16:29 38.84587 -102.26250 38156 ft 382 kts 274°
2026-05-06 16:29 38.85923 -102.32908 38163 ft 387 kts 280°
2026-05-06 16:30 38.87173 -102.38426 38163 ft 387 kts 280°
2026-05-06 16:30 38.88899 -102.46185 38168 ft 387 kts 279°
2026-05-06 16:31 38.90350 -102.52832 38166 ft 386 kts 279°
2026-05-06 16:31 38.91790 -102.59481 38166 ft 386 kts 279°
2026-05-06 16:32 38.93226 -102.66131 38154 ft 386 kts 279°
2026-05-06 16:32 38.94658 -102.72779 38160 ft 386 kts 279°
2026-05-06 16:33 38.96085 -102.79429 38157 ft 386 kts 279°
2026-05-06 16:34 38.98218 -102.89397 38159 ft 385 kts 279°
2026-05-06 16:34 38.98930 -102.92729 37829 ft 391 kts 279°
2026-05-06 16:34 38.99651 -102.96102 37277 ft 389 kts 279°
2026-05-06 16:34 39.00366 -102.99439 36615 ft 387 kts 279°
2026-05-06 16:35 39.01079 -103.02769 35906 ft 386 kts 279°
2026-05-06 16:35 39.01790 -103.06111 35122 ft 388 kts 279°
2026-05-06 16:35 39.02506 -103.09476 34340 ft 390 kts 279°
2026-05-06 16:35 39.03222 -103.12844 33533 ft 390 kts 279°
2026-05-06 16:36 39.03925 -103.16159 32716 ft 390 kts 279°
2026-05-06 16:36 39.04802 -103.19451 32171 ft 392 kts 288°
2026-05-06 16:36 39.06199 -103.22497 31612 ft 394 kts 294°
2026-05-06 16:36 39.07653 -103.25473 31016 ft 391 kts 294°
2026-05-06 16:37 39.09090 -103.28439 30478 ft 388 kts 293°
2026-05-06 16:37 39.10487 -103.31350 30313 ft 377 kts 293°
2026-05-06 16:37 39.11856 -103.34226 30134 ft 375 kts 293°
2026-05-06 16:37 39.13218 -103.37104 29231 ft 379 kts 293°
2026-05-06 16:38 39.14593 -103.40023 28316 ft 382 kts 294°
2026-05-06 16:38 39.15978 -103.42956 27463 ft 383 kts 294°
2026-05-06 16:38 39.17359 -103.45881 26830 ft 380 kts 295°
2026-05-06 16:38 39.18722 -103.48772 26222 ft 376 kts 295°
2026-05-06 16:39 39.20072 -103.51640 25627 ft 372 kts 295°
2026-05-06 16:39 39.21411 -103.54486 25040 ft 369 kts 295°
2026-05-06 16:39 39.22739 -103.57310 24474 ft 367 kts 296°
2026-05-06 16:39 39.24058 -103.60120 23900 ft 365 kts 296°
2026-05-06 16:40 39.25371 -103.62920 23235 ft 363 kts 296°
2026-05-06 16:40 39.26672 -103.65694 22605 ft 360 kts 297°
2026-05-06 16:40 39.27965 -103.68452 22139 ft 354 kts 297°
2026-05-06 16:40 39.29234 -103.71108 21765 ft 346 kts 299°
2026-05-06 16:41 39.30573 -103.73681 21273 ft 344 kts 300°
2026-05-06 16:41 39.31935 -103.76219 20676 ft 344 kts 301°
2026-05-06 16:41 39.33306 -103.78769 20029 ft 346 kts 301°
2026-05-06 16:41 39.34671 -103.81321 19449 ft 346 kts 302°
2026-05-06 16:42 39.36035 -103.83887 18920 ft 345 kts 302°
2026-05-06 16:42 39.37387 -103.86441 18343 ft 344 kts 302°
2026-05-06 16:42 39.38733 -103.88991 17763 ft 343 kts 302°
2026-05-06 16:42 39.40072 -103.91530 17226 ft 340 kts 302°
2026-05-06 16:43 39.41383 -103.94018 17068 ft 327 kts 302°
2026-05-06 16:43 39.42639 -103.96404 16911 ft 315 kts 302°
2026-05-06 16:43 39.43702 -103.98803 16780 ft 300 kts 288°
2026-05-06 16:43 39.44118 -104.01404 16415 ft 295 kts 271°
2026-05-06 16:44 39.44085 -104.04030 16064 ft 291 kts 267°
2026-05-06 16:44 39.43980 -104.06642 15677 ft 290 kts 267°
2026-05-06 16:44 39.43868 -104.09204 15295 ft 288 kts 267°
2026-05-06 16:44 39.43760 -104.11787 14912 ft 288 kts 267°
2026-05-06 16:45 39.43656 -104.14372 14528 ft 288 kts 267°
2026-05-06 16:45 39.43559 -104.16958 14135 ft 288 kts 268°
2026-05-06 16:45 39.43467 -104.19554 13701 ft 288 kts 268°
2026-05-06 16:45 39.43375 -104.22145 13284 ft 288 kts 267°
2026-05-06 16:46 39.43283 -104.24680 13161 ft 277 kts 267°
2026-05-06 16:46 39.43193 -104.27124 13011 ft 268 kts 267°
2026-05-06 16:46 39.43107 -104.29526 12705 ft 266 kts 266°
2026-05-06 16:46 39.43021 -104.31899 12425 ft 263 kts 266°
2026-05-06 16:47 39.42937 -104.34250 12127 ft 260 kts 266°
2026-05-06 16:47 39.42852 -104.36576 11842 ft 257 kts 266°
2026-05-06 16:47 39.42766 -104.38880 11557 ft 256 kts 265°
2026-05-06 16:47 39.42682 -104.41176 11271 ft 255 kts 265°
2026-05-06 16:48 39.42598 -104.43460 10980 ft 254 kts 265°
2026-05-06 16:48 39.42521 -104.45733 10723 ft 252 kts 265°
2026-05-06 16:48 39.42445 -104.47988 10453 ft 250 kts 264°
2026-05-06 16:48 39.42370 -104.50223 10192 ft 248 kts 265°
2026-05-06 16:49 39.42694 -104.52422 9880 ft 254 kts 294°
2026-05-06 16:49 39.43627 -104.54356 9633 ft 254 kts 304°
2026-05-06 16:49 39.44684 -104.56194 9353 ft 254 kts 305°
2026-05-06 16:49 39.45746 -104.58030 9095 ft 254 kts 306°
2026-05-06 16:50 39.46463 -104.59217 9029 ft 254 kts 310°
2026-05-06 16:50 39.47068 -104.60093 9016 ft 253 kts 312°
2026-05-06 16:50 39.48156 -104.61597 8995 ft 252 kts 313°
2026-05-06 16:51 39.49905 -104.63315 8979 ft 250 kts 341°
2026-05-06 16:51 39.51567 -104.63948 8999 ft 249 kts 345°
2026-05-06 16:51 39.53239 -104.64518 8993 ft 248 kts 351°
2026-05-06 16:51 39.54933 -104.64648 9001 ft 247 kts
2026-05-06 16:52 39.56655 -104.64601 8985 ft 245 kts
2026-05-06 16:52 39.58369 -104.64548 8972 ft 246 kts
2026-05-06 16:52 39.60080 -104.64468 8977 ft 246 kts
2026-05-06 16:52 39.61780 -104.64415 8966 ft 244 kts
2026-05-06 16:53 39.63483 -104.64405 8968 ft 245 kts
2026-05-06 16:53 39.65252 -104.64398 8651 ft 263 kts
2026-05-06 16:53 39.67076 -104.64328 8326 ft 261 kts
2026-05-06 16:53 39.68877 -104.64360 8006 ft 255 kts
2026-05-06 16:54 39.70580 -104.64367 7703 ft 235 kts
2026-05-06 16:54 39.72152 -104.64294 7420 ft 216 kts
2026-05-06 16:54 39.73586 -104.64302 7244 ft 195 kts
2026-05-06 16:54 39.74865 -104.64278 7116 ft 173 kts
2026-05-06 16:55 39.75977 -104.64253 6995 ft 152 kts
2026-05-06 16:55 39.77000 -104.64200 6973 ft 149 kts 359°
2026-05-06 16:55 39.77985 -104.64243 6789 ft 151 kts
2026-05-06 16:55 39.79033 -104.64240 6463 ft 149 kts
2026-05-06 16:56 39.80038 -104.64237 6135 ft 139 kts
2026-05-06 16:56 39.80997 -104.64198 5870 ft 138 kts
2026-05-06 16:56 39.81967 -104.64201 5677 ft 140 kts
2026-05-06 16:56 39.82929 -104.64212 5483 ft 134 kts
2026-05-06 16:57 39.83829 -104.64145 5370 ft 122 kts
2026-05-06 16:57 39.84535 -104.64144 5361 ft 81 kts 359°
2026-05-06 16:57 39.85030 -104.64148 5358 ft 66 kts 359°
2026-05-06 16:57 39.85440 -104.64149 5354 ft 46 kts 353°
2026-05-06 16:58 39.85714 -104.64308 5352 ft 41 kts 330°
2026-05-06 16:58 39.85952 -104.64479 5350 ft 37 kts 330°
2026-05-06 16:58 39.86165 -104.64640 5348 ft 34 kts 331°
2026-05-06 16:58 39.86360 -104.64782 5349 ft 30 kts 328°
2026-05-06 16:59 39.86498 -104.64903 5356 ft 13 kts 288°
2026-05-06 16:59 39.86493 -104.65018 5358 ft 13 kts 272°
2026-05-06 16:59 39.86496 -104.65131 5359 ft 12 kts 267°
2026-05-06 16:59 39.86496 -104.65241 5362 ft 12 kts 272°
2026-05-06 17:00 39.86496 -104.65348 5365 ft 12 kts 268°
2026-05-06 17:00 39.86494 -104.65453 5367 ft 11 kts 270°
2026-05-06 17:00 39.86495 -104.65555 5373 ft 11 kts 268°
2026-05-06 17:00 39.86495 -104.65653 5371 ft 11 kts 272°
2026-05-06 17:01 39.86498 -104.65784 5374 ft 18 kts 271°
2026-05-06 17:01 39.86501 -104.65960 5375 ft 20 kts 270°
2026-05-06 17:01 39.86500 -104.66063 5379 ft 16 kts 269°
2026-05-06 17:01 39.86499 -104.66180 5381 ft 7 kts 270°
2026-05-06 17:02 39.86499 -104.66243 5379 ft 6 kts 270°
2026-05-06 17:02 39.86500 -104.66276 5377 ft 0 kts 270°
2026-05-06 17:04 39.86132 -104.66353 5377 ft 11 kts 207°
2026-05-06 17:04 39.86104 -104.66455 5377 ft 15 kts 274°
2026-05-06 17:04 39.86120 -104.66591 5377 ft 15 kts 281°
2026-05-06 17:04 39.86125 -104.66723 5377 ft 14 kts 267°
2026-05-06 17:05 39.86130 -104.66850 5376 ft 14 kts 269°
2026-05-06 17:05 39.86129 -104.66972 5376 ft 13 kts 270°
2026-05-06 17:05 39.86129 -104.67089 5376 ft 13 kts 270°
2026-05-06 17:05 39.86129 -104.67203 5376 ft 12 kts 270°
2026-05-06 17:06 39.86154 -104.67304 5376 ft 12 kts 322°
2026-05-06 17:06 39.86210 -104.67318 5373 ft 7 kts 16°
2026-05-06 17:06 39.86235 -104.67308 5374 ft 1 kts 19°